Location: Newark
(34.1333°N, 7.9667°W)
Time: 11:08:15
(UTC+00:00)

Transit 2A - All Passes

Search period start: 13 June 2021 00:00
Search period end: 23 June 2021 00:00
Orbit: 601 x 958 km, 66.7° (Epoch: 13 June)

Date Brightness Start Highest point End Pass type
(mag) Time Alt. Az. Time Alt. Az. Time Alt. Az.
13 Jun - 03:00:55 10° N 03:05:18 30° ENE 03:10:04 10° ESE visible
13 Jun - 04:43:54 10° NW 04:48:23 31° WSW 04:53:17 10° S visible
13 Jun - 17:37:45 10° S 17:42:02 48° ESE 17:46:12 10° NE daylight
13 Jun - 19:23:08 10° W 19:25:24 14° NW 19:27:38 10° NNW daylight
14 Jun - 02:27:17 10° N 02:31:00 20° NE 02:34:57 10° ESE visible
14 Jun - 04:09:22 10° NW 04:14:17 47° WSW 04:19:40 10° S visible
14 Jun - 17:04:08 10° S 17:07:57 29° ESE 17:11:41 10° NE daylight
14 Jun - 18:47:41 10° WSW 18:51:01 21° NW 18:54:21 10° N daylight
15 Jun - 01:54:02 10° NNE 01:56:37 14° NE 01:59:18 10° E visible
15 Jun - 03:35:03 10° NNW 03:40:08 74° WSW 03:45:46 10° SSE visible
15 Jun - 16:30:57 10° SSE 16:33:54 18° ESE 16:36:48 10° ENE daylight
15 Jun - 18:12:46 10° WSW 18:16:43 32° WNW 18:20:39 10° N daylight
16 Jun - 03:00:53 10° NNW 03:05:58 74° ENE 03:11:36 10° SSE visible
16 Jun - 04:46:50 10° W 04:48:40 12° WSW 04:50:34 10° SW visible
16 Jun - 15:59:18 10° ESE 15:59:54 10° ESE 16:00:30 10° E daylight
16 Jun - 17:38:11 10° SW 17:42:29 53° WNW 17:46:44 10° NNE daylight
17 Jun - 02:26:51 10° NNW 02:31:45 48° ENE 02:37:10 10° SE visible
17 Jun - 04:11:02 10° WNW 04:14:39 19° WSW 04:18:29 10° SSW visible
17 Jun - 17:03:53 10° SSW 17:08:18 89° NW 17:12:39 10° NNE daylight
18 Jun - 01:52:57 10° N 01:57:31 32° ENE 02:02:27 10° ESE visible
18 Jun - 03:36:07 10° NW 03:40:34 29° WSW 03:45:23 10° SSW visible
18 Jun - 16:29:52 10° S 16:34:10 53° ESE 16:38:23 10° NE daylight
18 Jun - 18:15:40 10° WNW 18:17:36 13° NW 18:19:32 10° NNW daylight
19 Jun - 01:19:16 10° N 01:23:13 22° NE 01:27:26 10° ESE visible
19 Jun - 03:01:33 10° NW 03:06:28 44° WSW 03:11:50 10° S visible
19 Jun - 15:56:10 10° S 16:00:05 31° ESE 16:03:55 10° NE daylight
19 Jun - 17:40:02 10° WSW 17:43:12 19° NW 17:46:22 10° N daylight
20 Jun - 00:45:53 10° NNE 00:48:51 15° NE 00:51:57 10° E visible
20 Jun - 02:27:12 10° NNW 02:32:20 68° WSW 02:37:59 10° SSE visible
20 Jun - 15:22:54 10° SSE 15:26:01 19° ESE 15:29:07 10° ENE daylight
20 Jun - 17:05:02 10° WSW 17:08:53 30° WNW 17:12:44 10° N daylight
21 Jun - 00:13:56 10° NE 00:14:24 10° NE 00:14:53 10° NE visible
21 Jun - 01:53:00 10° NNW 01:58:10 80° ENE 02:03:52 10° SSE visible
21 Jun - 03:39:34 10° W 03:40:50 11° WSW 03:42:09 10° WSW visible
21 Jun - 14:50:36 10° SE 14:52:01 11° ESE 14:53:26 10° E daylight
21 Jun - 16:30:24 10° SW 16:34:38 48° WNW 16:38:51 10° NNE daylight
22 Jun - 01:18:56 10° NNW 01:23:58 53° ENE 01:29:29 10° SE visible
22 Jun - 03:03:21 10° WNW 03:06:49 18° WSW 03:10:28 10° SSW visible
22 Jun - 15:56:03 10° SSW 16:00:27 81° WNW 16:04:47 10° NNE daylight
